Terminal Aerodrome Forecast
Issued by NWS Birmingham, AL

Home | Current Version | Previous Version | Text Only | Print | Product List | Glossary On
Versions: 1 2 3 4 5 6 7 8 9 10 11 12 13 14 15 16 17 18 19 20 21 22 23 24 25
000
FTUS44 KBMX 290331 AAB
TAFBHM
TAF AMD
KBHM 290331Z 2904/2924 14007KT P6SM VCSH SCT010 BKN040
     FM290500 00000KT P6SM SCT007 BKN035
     FM290900 00000KT 5SM BR BKN007
     FM291400 16004KT P6SM BKN250
     FM291700 16005KT P6SM VCTS BKN050CB
     FM291900 14007KT 4SM SHRA VCTS BKN025CB OVC050=

USA.gov is the U.S. government's official web portal to all federal, state and local government web resources and services.